Weather reports worldwide

Advertisment
Bingley, United Kingdom (3344): temperature & dewpoint: 10.08.2018 12:00:00 - 16.08.2018 12:00:00 (BST)Bingley, United Kingdom (3344): temperature -20cm: 10.08.2018 12:00:00 - 16.08.2018 12:00:00 (BST)Bingley, United Kingdom (3344): wind speed & gusts: 10.08.2018 12:00:00 - 16.08.2018 12:00:00 (BST)Bingley, United Kingdom (3344): wind direction: 10.08.2018 12:00:00 - 16.08.2018 12:00:00 (BST)Bingley, United Kingdom (3344): reduced air pressure: 10.08.2018 12:00:00 - 16.08.2018 12:00:00 (BST)Bingley, United Kingdom (3344): visibility: 10.08.2018 12:00:00 - 16.08.2018 12:00:00 (BST)Bingley, United Kingdom (3344): precipitation: 10.08.2018 12:00:00 - 16.08.2018 12:00:00 (BST)
Date & Time tt [°C] td [°C] tt -20cm [°C] ff [km/h] ff [kn] fx [km/h] fx [kn] dd ppp [hPa] vv [km] rr [mm]
16.08.2018 12:00:00 16,1 10,0 - 15 8 - - W 1009,2 27 0,0
16.08.2018 11:00:00 13,7 9,6 - 16 9 - - WSW 1009,5 20 0,0
16.08.2018 10:00:00 13,3 10,6 17,7 11 6 - - W 1009,4 18 0,0
16.08.2018 09:00:00 12,1 10,3 - 11 6 - - WSW 1009,1 16 0,0
16.08.2018 08:00:00 12,0 10,4 - 11 6 - - W 1008,7 16 0,0
16.08.2018 07:00:00 11,6 10,3 - 8 4 - - W 1008,5 18 0,4
16.08.2018 06:00:00 14,2 13,6 - 16 9 - - SW 1007,7 3,4 0,8
16.08.2018 05:00:00 15,0 14,2 - 15 8 - - SW 1007,6 4,8 0,8
16.08.2018 04:00:00 15,2 13,7 - 16 9 - - SW 1007,9 35 0,4
16.08.2018 03:00:00 15,7 14,3 - 16 9 - - SW 1008,4 14 0,6
16.08.2018 02:00:00 16,4 14,9 - 18 10 - - SW 1009,0 50 0,0
16.08.2018 01:00:00 16,5 15,6 - 18 10 - - SSW 1009,3 3,5 0,0
16.08.2018 00:00:00 16,3 15,3 - 22 12 - - SW 1009,5 50 1,0
15.08.2018 23:00:00 16,4 16,1 - 16 9 - - SW 1009,5 3,8 0,4
15.08.2018 22:00:00 16,7 16,0 - 21 11 - - SSW 1009,7 5 0,4
15.08.2018 21:00:00 16,7 16,1 - 21 11 - - SSW 1009,9 7 0,2
15.08.2018 20:00:00 16,9 16,1 - 24 13 46 25 SSW 1010,0 8 0,8
15.08.2018 19:00:00 17,7 16,1 - 29 16 55 30 SSW 1010,0 8 0,0
15.08.2018 18:00:00 18,7 16,0 - 29 16 59 32 SW 1009,8 50 0,0
15.08.2018 17:00:00 20,8 15,7 - 28 15 57 31 SSW 1010,2 40 0,0
15.08.2018 16:00:00 - - - - - - - - - - -
15.08.2018 15:00:00 - - - - - - - - - 45 0,0
15.08.2018 14:00:00 - - - - - - - - - - 0,0
15.08.2018 13:00:00 - - - - - - - - - - 0,0
15.08.2018 12:00:00 - - - - - - - - - 40 0,0
15.08.2018 11:00:00 18,5 15,0 - 22 12 46 25 SW 1013,0 30 0,0
15.08.2018 10:00:00 17,3 14,9 17,4 21 11 - - SW 1013,2 28 0,0
15.08.2018 09:00:00 16,4 14,1 - 24 13 - - SW 1013,3 18 0,0
15.08.2018 08:00:00 15,9 14,5 - 22 12 - - SW 1013,2 16 0,0
15.08.2018 07:00:00 14,9 14,1 - 22 12 - - SW 1013,3 10 0,0
15.08.2018 06:00:00 14,7 13,9 - 18 10 - - SW 1013,7 8 0,0
15.08.2018 05:00:00 14,8 13,8 - 22 12 - - SW 1013,7 8 0,0
15.08.2018 04:00:00 15,0 13,6 - 15 8 - - SW 1014,1 10 0,0
15.08.2018 03:00:00 15,5 13,8 - 16 9 - - SW 1014,2 17 0,0
15.08.2018 02:00:00 15,7 13,9 - 18 10 - - SW 1014,4 26 0,0
15.08.2018 01:00:00 16,0 14,2 - 18 10 - - SW 1014,6 11 0,0
15.08.2018 00:00:00 16,8 14,4 - 15 8 - - SW 1014,6 30 0,0
14.08.2018 23:00:00 16,8 14,1 - 11 6 - - SW 1014,9 45 0,0
14.08.2018 22:00:00 16,6 14,0 - 13 7 - - WSW 1014,9 50 0,0
14.08.2018 21:00:00 16,5 14,0 - 11 6 - - SW 1014,9 45 0,0
14.08.2018 20:00:00 16,3 13,8 - 11 6 - - WSW 1015,0 45 0,0
14.08.2018 19:00:00 17,5 13,9 - 15 8 - - W 1014,4 45 0,0
14.08.2018 18:00:00 18,5 14,0 - 13 7 - - W 1014,1 24 0,0
14.08.2018 17:00:00 18,0 15,1 - 15 8 - - W 1014,3 40 0,0
14.08.2018 16:00:00 16,7 14,4 - 13 7 - - W 1014,5 40 0,0
14.08.2018 15:00:00 16,8 14,6 - 16 9 - - WSW 1014,5 28 0,0
14.08.2018 14:00:00 16,9 14,3 - 16 9 - - W 1014,3 7 0,0
14.08.2018 13:00:00 16,8 14,0 - 15 8 - - W 1014,2 40 0,0
14.08.2018 12:00:00 16,4 14,5 - 13 7 - - WSW 1014,1 8 0,0
14.08.2018 11:00:00 16,9 14,2 - 15 8 - - W 1013,8 29 0,0
14.08.2018 10:00:00 15,7 14,1 17,2 9 5 - - W 1013,7 13 0,0
14.08.2018 09:00:00 15,6 13,8 - 11 6 - - W 1013,5 17 0,0
14.08.2018 08:00:00 14,6 13,3 - 8 4 - - W 1013,3 20 0,0
14.08.2018 07:00:00 13,9 12,6 - 9 5 - - WSW 1013,1 19 0,0
14.08.2018 06:00:00 13,9 12,7 - 8 4 - - W 1012,8 28 0,0
14.08.2018 05:00:00 13,6 12,4 - 8 4 - - W 1012,5 35 0,0
14.08.2018 04:00:00 13,0 12,3 - 5 3 - - W 1012,7 22 0,0
14.08.2018 03:00:00 12,8 12,1 - 5 3 - - W 1012,4 25 0,0
14.08.2018 02:00:00 12,7 11,6 - 9 5 - - WNW 1012,5 40 0,0
14.08.2018 01:00:00 12,9 11,8 - 5 3 - - W 1012,3 40 0,0
14.08.2018 00:00:00 12,9 11,8 - 4 2 - - W 1011,9 50 0,0
13.08.2018 23:00:00 13,5 12,1 - 8 4 - - WNW 1011,1 50 0,0
13.08.2018 22:00:00 14,0 12,3 - 9 5 - - WNW 1010,6 45 0,0
13.08.2018 21:00:00 14,6 12,5 - 9 5 - - W 1010,1 50 0,0
13.08.2018 20:00:00 16,0 13,6 - 9 5 - - W 1009,3 35 0,0
13.08.2018 19:00:00 16,1 14,6 - 9 5 - - W 1008,6 28 0,0
13.08.2018 18:00:00 17,5 15,6 - 9 5 - - W 1008,0 40 0,0
13.08.2018 17:00:00 17,3 16,4 - 8 4 - - W 1007,6 20 0,2
13.08.2018 16:00:00 17,4 16,8 - 8 4 - - W 1007,4 13 2,4
13.08.2018 15:00:00 17,3 16,4 - 9 5 - - WNW 1007,1 7 0,8
13.08.2018 14:00:00 18,7 15,5 - 9 5 - - WNW 1006,2 5 0,2
13.08.2018 13:00:00 19,8 15,2 - 11 6 - - WNW 1005,8 30 0,0
13.08.2018 12:00:00 20,1 16,6 - 5 3 - - WNW 1005,7 30 0,0
13.08.2018 11:00:00 18,6 15,7 - 8 4 - - WNW 1005,8 40 0,0
13.08.2018 10:00:00 16,3 15,7 17,2 5 3 - - WNW 1005,9 40 0,0
13.08.2018 09:00:00 15,5 15,1 - 5 3 - - WNW 1005,9 35 0,0
13.08.2018 08:00:00 15,2 14,9 - 5 3 - - W 1005,6 11 0,0
13.08.2018 07:00:00 14,9 14,8 - 4 2 - - W 1005,2 9 0,0
13.08.2018 06:00:00 14,7 14,7 - 5 3 - - WNW 1004,9 7 0,0
13.08.2018 05:00:00 15,0 14,9 - 4 2 - - WNW 1004,8 6 0,0
13.08.2018 04:00:00 15,3 15,2 - 4 2 - - W 1004,7 6 0,0
13.08.2018 03:00:00 15,3 15,2 - 2 1 - - W 1004,9 5 0,0
13.08.2018 02:00:00 15,3 15,2 - 2 1 - - W 1005,2 7 0,0
13.08.2018 01:00:00 15,7 15,6 - 4 2 - - SW 1005,4 6 1,2
13.08.2018 00:00:00 15,4 15,2 - 2 1 - - S 1005,7 3,2 0,0
12.08.2018 23:00:00 16,0 15,5 - 5 3 - - S 1005,6 13 0,0
12.08.2018 22:00:00 16,4 15,5 - 8 4 - - SE 1005,8 23 0,0
12.08.2018 21:00:00 17,2 15,3 - 11 6 - - SSE 1005,7 40 0,0
12.08.2018 20:00:00 18,0 15,1 - 11 6 - - SSE 1005,5 50 0,0
12.08.2018 19:00:00 18,7 15,2 - 15 8 - - SSE 1005,5 45 0,0
12.08.2018 18:00:00 19,6 15,3 - 15 8 - - S 1005,6 40 0,0
12.08.2018 17:00:00 19,5 15,5 - 11 6 - - SSW 1006,1 50 0,0
12.08.2018 16:00:00 18,8 15,6 - 9 5 - - S 1006,6 45 0,0
12.08.2018 15:00:00 18,6 15,7 - 11 6 - - S 1007,0 45 0,0
12.08.2018 14:00:00 18,6 16,1 - 8 4 - - SSW 1007,3 40 0,0
12.08.2018 13:00:00 18,5 15,8 - 13 7 - - SW 1007,3 40 0,0
12.08.2018 12:00:00 17,1 15,9 - 8 4 - - SSW 1007,6 28 0,0
12.08.2018 11:00:00 16,8 15,8 - 15 8 - - SSW 1007,7 23 0,0
12.08.2018 10:00:00 16,5 15,7 17,0 11 6 - - SW 1007,9 21 0,0
12.08.2018 09:00:00 16,3 15,8 - 15 8 - - SSW 1007,9 35 0,0
12.08.2018 08:00:00 15,6 15,3 - 15 8 - - SSW 1008,2 40 0,2
12.08.2018 07:00:00 15,4 15,1 - 15 8 - - SSW 1008,1 24 0,6
12.08.2018 06:00:00 15,2 14,9 - 15 8 - - SSW 1008,1 8 1,4
12.08.2018 05:00:00 15,4 14,7 - 13 7 - - SSW 1008,9 8 0,2
12.08.2018 04:00:00 15,4 14,7 - 16 9 - - SSW 1009,1 35 0,0
12.08.2018 03:00:00 15,4 14,7 - 22 12 - - SSW 1009,8 30 0,0
12.08.2018 02:00:00 15,3 14,7 - 18 10 - - SSW 1010,8 6 0,6
12.08.2018 01:00:00 15,3 14,8 - 13 7 - - S 1011,7 21 0,2
12.08.2018 00:00:00 14,6 14,5 - 8 4 - - SSE 1012,7 8 0,2
11.08.2018 23:00:00 14,2 14,2 - 11 6 - - SE 1013,4 3,9 2,6
11.08.2018 22:00:00 14,3 13,8 - 15 8 - - SSE 1014,3 5 0,8
11.08.2018 21:00:00 14,4 13,6 - 11 6 - - SSE 1015,0 4,1 0,6
11.08.2018 20:00:00 16,2 12,2 - 11 6 - - S 1015,5 9 0,0
11.08.2018 19:00:00 17,8 10,1 - 16 9 - - S 1015,7 45 0,0
11.08.2018 18:00:00 18,9 8,6 - 13 7 - - S 1016,1 50 0,0
11.08.2018 17:00:00 19,5 7,4 - 13 7 - - S 1016,7 45 0,0
11.08.2018 16:00:00 19,7 7,0 - 15 8 - - S 1017,4 40 0,0
11.08.2018 15:00:00 20,0 6,3 - 13 7 - - SSW 1018,1 35 0,0
11.08.2018 14:00:00 18,5 6,3 - 15 8 - - SSW 1018,8 30 0,0
11.08.2018 13:00:00 16,6 6,3 - 13 7 - - SW 1019,5 50 0,0
11.08.2018 12:00:00 17,0 7,6 - 13 7 - - SW 1020,0 35 0,0
11.08.2018 11:00:00 16,2 8,5 - 15 8 - - SW 1020,4 35 0,0
11.08.2018 10:00:00 15,1 9,8 16,2 5 3 - - W 1020,8 40 0,0
11.08.2018 09:00:00 13,6 9,6 - 8 4 - - WSW 1021,1 45 0,0
11.08.2018 08:00:00 12,6 9,4 - 8 4 - - W 1021,1 30 0,0
11.08.2018 07:00:00 10,4 8,5 - 8 4 - - WSW 1021,1 40 0,0
11.08.2018 06:00:00 9,1 7,5 - 8 4 - - WSW 1021,1 40 0,0
11.08.2018 05:00:00 9,2 7,7 - 9 5 - - WSW 1020,9 45 0,0
11.08.2018 04:00:00 9,4 7,9 - 9 5 - - WSW 1020,5 40 0,0
11.08.2018 03:00:00 9,7 8,3 - 8 4 - - W 1020,2 45 0,0
11.08.2018 02:00:00 9,7 8,1 - 8 4 - - W 1020,3 45 0,0
11.08.2018 01:00:00 10,0 8,3 - 8 4 - - W 1020,0 50 0,0
11.08.2018 00:00:00 9,9 7,8 - 8 4 - - W 1019,8 50 0,0
10.08.2018 23:00:00 9,8 7,4 - 5 3 - - W 1019,5 50 0,0
10.08.2018 22:00:00 10,3 8,1 - 8 4 - - W 1018,9 50 0,0
10.08.2018 21:00:00 10,9 7,7 - 8 4 - - W 1018,2 45 0,0
10.08.2018 20:00:00 12,2 7,7 - 5 3 - - W 1017,6 45 0,0
10.08.2018 19:00:00 12,6 7,0 - 8 4 - - WNW 1016,8 50 0,0
10.08.2018 18:00:00 15,2 7,7 - 8 4 - - W 1015,9 45 0,0
10.08.2018 17:00:00 14,6 8,5 - 16 9 - - WNW 1015,4 50 0,0
10.08.2018 16:00:00 13,5 9,2 - 16 9 - - SW 1015,3 35 0,0
10.08.2018 15:00:00 10,1 7,1 - 15 8 - - SW 1015,7 40 0,8
10.08.2018 14:00:00 10,7 8,5 - 9 5 - - SW 1015,5 40 1,0
10.08.2018 13:00:00 11,6 8,6 - 9 5 - - W 1015,3 2,0 2,8
10.08.2018 12:00:00 14,5 9,6 - 13 7 - - WSW 1014,5 35 0,0

tt = temperature
td = dewpoint
tt -20cm = temperature -20cm
ff = wind speed
fx = gusts
dd = wind direction
ppp = reduced air pressure
vv = visibility
rr = precipitation

Next stations